This is the latest recevied weather packets stored in our database for station/object SP3OTE-2. If no packets are shown the sender has not sent any weather packets the latest 10 day(s).
| Time | Temp. | Humidity | Pressure | Rain* | Wind** | Luminosity | Snow |
|---|---|---|---|---|---|---|---|
| 1777845353 | 17.22° C | 44% | 1014.3 hPa | - | - | - | - |
| 1777844753 | 17.22° C | 43% | 1014.3 hPa | - | - | - | - |
| 1777844153 | 17.22° C | 43% | 1014.3 hPa | - | - | - | - |
| 1777843552 | 17.78° C | 43% | 1014.4 hPa | - | - | - | - |
| 1777842952 | 17.78° C | 43% | 1014.4 hPa | - | - | - | - |
| 1777842352 | 17.78° C | 43% | 1014.3 hPa | - | - | - | - |
| 1777841751 | 18.33° C | 43% | 1014.4 hPa | - | - | - | - |
| 1777841151 | 18.33° C | 43% | 1014.3 hPa | - | - | - | - |
| 1777840551 | 18.33° C | 42% | 1014.4 hPa | - | - | - | - |
| 1777839950 | 18.89° C | 42% | 1014.4 hPa | - | - | - | - |
| 1777839350 | 18.89° C | 41% | 1014.3 hPa | - | - | - | - |
| 1777838750 | 18.89° C | 41% | 1014.3 hPa | - | - | - | - |
| 1777838150 | 19.44° C | 40% | 1014.3 hPa | - | - | - | - |
| 1777837550 | 19.44° C | 40% | 1014.3 hPa | - | - | - | - |
| 1777836949 | 20° C | 40% | 1014.4 hPa | - | - | - | - |
| 1777836349 | 20° C | 39% | 1014.2 hPa | - | - | - | - |
| 1777835749 | 20.56° C | 39% | 1014.3 hPa | - | - | - | - |
| 1777835149 | 21.11° C | 38% | 1014.2 hPa | - | - | - | - |
| 1777834549 | 21.11° C | 37% | 1014 hPa | - | - | - | - |
| 1777833948 | 21.67° C | 37% | 1014 hPa | - | - | - | - |
| 1777833348 | 22.22° C | 36% | 1013.9 hPa | - | - | - | - |
| 1777832748 | 22.78° C | 35% | 1013.7 hPa | - | - | - | - |
| 1777832147 | 23.33° C | 34% | 1013.7 hPa | - | - | - | - |
| 1777831547 | 24.44° C | 33% | 1013.6 hPa | - | - | - | - |
| 1777830947 | 25° C | 33% | 1013.5 hPa | - | - | - | - |
* Rain since midnight (hover to see other rain measurements)
** Current wind speed in m/s (hover to see current wind gust speed)